UPS2714 EDDK-EGNX

Flight info

Callsign UPS2714
Flight time N/A
Altitude 30000
Route NVO2Q NVO Y868 NAVAK DCT DENUT L610 HEMEL HEMEL1E
Aircraft B763/H-SDE3FGHIM3RWXY/LB1

Departure

Time N/A
Airport Cologne Bonn Airport (EDDK)

Arrival

Time 2026-05-01 08:02
Airport East Midlands Airport (EGNX)
Time Latitude Longitude Altitude Speed Heading
2026-05-01 07:23 51.35123 2.76093 30237 ft 499 kts 279°
2026-05-01 07:24 51.37221 2.59088 30229 ft 498 kts 279°
2026-05-01 07:24 51.38556 2.48152 30227 ft 499 kts 279°
2026-05-01 07:25 51.39887 2.37166 30224 ft 499 kts 279°
2026-05-01 07:25 51.41196 2.26274 30218 ft 499 kts 278°
2026-05-01 07:26 51.42525 2.15402 30218 ft 500 kts 278°
2026-05-01 07:26 51.43849 2.04504 30207 ft 499 kts 278°
2026-05-01 07:27 51.45150 1.93599 30211 ft 498 kts 278°
2026-05-01 07:27 51.46422 1.82734 30211 ft 498 kts 278°
2026-05-01 07:28 51.47686 1.71794 30209 ft 500 kts 278°
2026-05-01 07:28 51.48935 1.60895 30209 ft 500 kts 278°
2026-05-01 07:29 51.50178 1.49954 30207 ft 499 kts 278°
2026-05-01 07:29 51.51416 1.38969 30204 ft 500 kts 278°
2026-05-01 07:30 51.52635 1.28052 30201 ft 499 kts 277°
2026-05-01 07:30 51.53845 1.17124 30200 ft 499 kts 277°
2026-05-01 07:31 51.55045 1.06176 30199 ft 499 kts 277°
2026-05-01 07:32 51.58001 0.78783 30198 ft 499 kts 277°
2026-05-01 07:33 51.59739 0.62382 29972 ft 503 kts 277°
2026-05-01 07:33 51.60318 0.56863 29536 ft 498 kts 277°
2026-05-01 07:33 51.61438 0.46143 28702 ft 476 kts 276°
2026-05-01 07:34 51.61971 0.40995 28301 ft 467 kts 276°
2026-05-01 07:34 51.63006 0.30934 27501 ft 449 kts 275°
2026-05-01 07:34 51.63506 0.26014 27140 ft 454 kts 275°
2026-05-01 07:35 51.64016 0.20995 26777 ft 457 kts 275°
2026-05-01 07:35 51.64659 0.15989 26402 ft 456 kts 283°
2026-05-01 07:35 51.65773 0.11231 26064 ft 455 kts 291°
2026-05-01 07:35 51.67047 0.06655 25721 ft 453 kts 290°
2026-05-01 07:36 51.68339 0.02008 25353 ft 453 kts 291°
2026-05-01 07:36 51.69614 -0.02560 24986 ft 449 kts 291°
2026-05-01 07:36 51.70888 -0.07118 24646 ft 445 kts 291°
2026-05-01 07:36 51.72150 -0.11640 24314 ft 443 kts 291°
2026-05-01 07:37 51.74657 -0.20632 23652 ft 442 kts 291°
2026-05-01 07:37 51.75906 -0.25124 23323 ft 439 kts 291°
2026-05-01 07:37 51.77153 -0.29613 22993 ft 437 kts 291°
2026-05-01 07:38 51.78394 -0.34091 22662 ft 435 kts 291°
2026-05-01 07:38 51.79618 -0.38498 22335 ft 433 kts 291°
2026-05-01 07:38 51.82967 -0.46455 21698 ft 437 kts 320°
2026-05-01 07:39 51.85503 -0.49092 21409 ft 437 kts 330°
2026-05-01 07:39 51.88188 -0.51368 21088 ft 436 kts 334°
2026-05-01 07:39 51.93701 -0.55271 20422 ft 433 kts 337°
2026-05-01 07:40 51.96439 -0.57308 20041 ft 431 kts 331°
2026-05-01 07:40 51.99032 -0.59692 19676 ft 429 kts 330°
2026-05-01 07:40 52.01609 -0.62055 19300 ft 427 kts 330°
2026-05-01 07:40 52.04185 -0.64416 18928 ft 424 kts 330°
2026-05-01 07:41 52.06727 -0.66753 18560 ft 421 kts 328°
2026-05-01 07:41 52.09229 -0.69203 18188 ft 419 kts 328°
2026-05-01 07:41 52.14175 -0.74049 17432 ft 410 kts 327°
2026-05-01 07:42 52.16576 -0.76413 17050 ft 402 kts 327°
2026-05-01 07:42 52.18952 -0.78750 16667 ft 395 kts 328°
2026-05-01 07:42 52.21254 -0.81046 16296 ft 388 kts 326°
2026-05-01 07:42 52.23492 -0.83426 15922 ft 382 kts 326°
2026-05-01 07:43 52.25696 -0.85764 15541 ft 376 kts 326°
2026-05-01 07:43 52.27873 -0.88072 15162 ft 373 kts 326°
2026-05-01 07:43 52.32177 -0.92636 14431 ft 366 kts 326°
2026-05-01 07:44 52.36369 -0.97093 13679 ft 357 kts 326°
2026-05-01 07:44 52.40491 -1.01491 12931 ft 349 kts 326°
2026-05-01 07:45 52.42628 -1.03192 12557 ft 345 kts 345°
2026-05-01 07:45 52.44980 -1.03506 12222 ft 338 kts
2026-05-01 07:45 52.47167 -1.02413 11822 ft 324 kts 29°
2026-05-01 07:45 52.49121 -1.00757 11451 ft 311 kts 30°
2026-05-01 07:46 52.51017 -0.99164 11069 ft 301 kts 30°
2026-05-01 07:46 52.52858 -0.97616 10688 ft 293 kts 30°
2026-05-01 07:46 52.56414 -0.94619 9934 ft 279 kts 30°
2026-05-01 07:47 52.58155 -0.93302 9558 ft 275 kts 15°
2026-05-01 07:47 52.60035 -0.93182 9249 ft 270 kts 346°
2026-05-01 07:47 52.61667 -0.94495 8908 ft 262 kts 315°
2026-05-01 07:47 52.62700 -0.96862 8651 ft 252 kts 291°
2026-05-01 07:48 52.64053 -1.02139 8091 ft 246 kts 288°
2026-05-01 07:48 52.64655 -1.04727 7736 ft 238 kts 288°
2026-05-01 07:48 52.65235 -1.07220 7356 ft 234 kts 287°
2026-05-01 07:49 52.65816 -1.09721 6985 ft 233 kts 288°
2026-05-01 07:49 52.66958 -1.14650 6259 ft 228 kts 288°
2026-05-01 07:49 52.67518 -1.17064 5971 ft 225 kts 288°
2026-05-01 07:50 52.68068 -1.19463 5727 ft 226 kts 288°
2026-05-01 07:50 52.69181 -1.24334 5225 ft 226 kts 288°
2026-05-01 07:50 52.69727 -1.26736 4998 ft 224 kts 288°
2026-05-01 07:51 52.70267 -1.29117 4976 ft 220 kts 288°
2026-05-01 07:51 52.70809 -1.31500 4993 ft 226 kts 288°
2026-05-01 07:51 52.71357 -1.33908 4978 ft 226 kts 288°
2026-05-01 07:52 52.72459 -1.38753 4987 ft 226 kts 288°
2026-05-01 07:52 52.73010 -1.41192 4846 ft 232 kts 288°
2026-05-01 07:52 52.73568 -1.43676 4530 ft 227 kts 288°
2026-05-01 07:53 52.74620 -1.48325 3989 ft 208 kts 288°
2026-05-01 07:53 52.75118 -1.50503 3720 ft 202 kts 288°
2026-05-01 07:53 52.75606 -1.52643 3424 ft 195 kts 288°
2026-05-01 07:53 52.76069 -1.54663 3108 ft 187 kts 288°
2026-05-01 07:54 52.76738 -1.58621 2998 ft 182 kts 281°
2026-05-01 07:55 52.77662 -1.64810 2979 ft 184 kts 281°
2026-05-01 07:55 52.78297 -1.69114 1988 ft 214 kts 280°
2026-05-01 07:56 52.80829 -1.72762 2004 ft 183 kts 23°
2026-05-01 07:56 52.82305 -1.69771 1962 ft 168 kts 83°
2026-05-01 07:57 52.82371 -1.67865 1992 ft 167 kts 90°
2026-05-01 07:57 52.82476 -1.64022 1978 ft 167 kts 90°
2026-05-01 07:58 52.82568 -1.60148 1988 ft 173 kts 91°
2026-05-01 07:58 52.82654 -1.56106 1980 ft 176 kts 91°
2026-05-01 07:59 52.82738 -1.52095 1976 ft 170 kts 91°
2026-05-01 07:59 52.82813 -1.48411 1967 ft 155 kts 91°
2026-05-01 08:00 52.82950 -1.41067 1120 ft 162 kts 88°
2026-05-01 08:01 52.83052 -1.35545 465 ft 160 kts 87°
2026-05-01 08:01 52.83083 -1.33722 314 ft 154 kts 88°
2026-05-01 08:01 52.83108 -1.32351 298 ft 80 kts 87°
2026-05-01 08:02 52.83114 -1.31357 290 ft 21 kts 131°
2026-05-01 08:02 52.82973 -1.31356 289 ft 22 kts 230°
2026-05-01 08:03 52.82946 -1.31942 287 ft 27 kts 270°
2026-05-01 08:03 52.82943 -1.32261 291 ft 28 kts 268°
2026-05-01 08:03 52.82930 -1.32936 297 ft 30 kts 267°
2026-05-01 08:04 52.82919 -1.33544 308 ft 24 kts 269°
2026-05-01 08:04 52.82907 -1.34168 308 ft 24 kts 267°
2026-05-01 08:05 52.82844 -1.34447 310 ft 13 kts 234°
2026-05-01 08:05 52.82831 -1.34607 312 ft 14 kts 269°
2026-05-01 08:05 52.82829 -1.34738 313 ft 6 kts 266°
2026-05-01 08:06 52.82758 -1.34770 312 ft 4 kts 178°
2026-05-01 08:06 52.82750 -1.34770 311 ft 0 kts 178°